Lid_Strength_Index
1 1 1 0 0 -0 -0 -0 -0 -1 -1 -1 -1 -0 -0 -0 1 4 9 4 3 -2 0 6 6 7 6 7 8 10 14 15 13 13 11 10 10 9 9 9 9 9 9 10 9
1 1 1 0 0 0 -0 -0 -1 -1 -1 -0 -0 -0 -0 0 5 8 1 -1 -3 -2 6 8 8 8 9 8 8 12 14 14 12 12 11 10 10 10 9 10 10 9 10 10 10
1 1 1 1 0 0 -0 -0 -1 -1 -1 -0 -0 -0 -0 2 8 9 -1 -1 -3 0 6 6 7 8 10 9 9 11 13 13 11 10 10 10 10 10 10 10 10 10 11 11 11
0 1 1 1 1 0 -0 -0 -1 -1 -1 -0 -0 -0 0 6 12 7 -1 -2 -2 5 6 7 8 10 11 12 9 12 11 11 9 9 10 11 10 10 10 9 11 11 11 12 12
0 1 1 1 1 1 0 -0 -1 -1 -1 -0 -0 -0 5 9 8 3 -0 -0 4 6 7 8 9 10 12 11 11 11 11 10 10 10 11 11 11 11 11 12 11 12 12 13 13
0 1 1 1 1 0 0 -0 -1 -1 -1 -0 -0 0 9 11 4 3 5 6 6 7 8 8 9 9 11 11 12 11 11 11 11 11 11 11 12 12 12 12 12 13 13 13 13
0 1 1 1 0 0 0 -0 -1 -1 -0 0 0 3 9 8 3 3 5 7 6 7 8 8 8 9 10 11 11 11 13 12 12 12 12 12 13 13 12 12 13 14 14 14 14
0 1 1 1 1 0 0 -0 -1 -0 0 0 0 6 9 7 3 4 6 6 6 7 7 7 8 9 10 11 12 13 14 15 13 12 12 12 13 12 12 12 14 14 14 14 14
0 1 1 0 1 1 0 -0 0 0 0 0 5 8 9 5 6 6 7 7 8 8 8 7 8 11 11 14 15 15 16 16 15 13 13 13 13 13 13 14 15 15 15 15 15
1 1 0 0 0 0 -0 -1 1 2 2 2 5 9 8 9 8 8 8 8 9 9 10 10 12 14 15 15 17 16 17 17 17 14 14 15 14 14 15 14 16 16 16 16 15
1 1 1 1 1 1 1 4 6 7 7 8 9 9 9 9 8 9 8 9 10 11 13 13 14 15 14 14 15 15 16 16 16 14 15 15 15 13 15 16 16 16 16 16 16
1 1 1 1 1 1 2 6 7 7 9 7 7 9 9 9 11 10 8 10 12 14 13 14 16 13 14 14 15 16 17 17 16 15 15 15 15 14 15 15 15 16 16 16 16
1 2 1 1 1 1 2 4 5 6 10 8 7 8 8 8 10 11 9 11 13 15 15 16 14 14 14 16 16 17 17 18 16 16 16 17 17 16 16 15 15 15 15 16 16
2 1 2 2 3 3 3 1 5 7 13 12 9 8 9 9 11 10 10 11 14 15 15 16 14 14 15 16 16 18 16 16 16 17 19 17 20 17 17 17 16 16 16 16 16
2 3 2 1 4 5 4 5 6 8 20 12 12 10 10 10 12 13 11 12 15 14 14 15 16 16 15 15 15 16 15 16 16 18 19 19 19 18 17 17 17 17 16 16 16
3 3 3 3 3 4 6 6 7 13 19 14 13 14 12 13 13 13 12 12 13 14 15 14 14 14 14 15 15 15 16 17 18 19 22 18 18 19 17 16 17 16 16 16 16
3 3 3 3 5 5 5 7 13 17 13 16 15 14 13 15 15 14 15 15 16 17 17 16 16 15 15 16 16 16 17 21 21 22 21 19 20 17 16 15 15 15 16 16 16
2 3 3 3 4 5 5 9 17 14 14 15 15 15 15 15 16 15 16 17 15 16 17 18 19 15 15 15 16 17 17 19 23 23 22 19 20 17 16 16 15 15 15 15 16
2 3 3 3 4 4 8 15 15 14 12 15 16 18 18 16 16 17 17 17 14 15 15 17 17 16 16 15 15 17 18 16 21 27 23 19 18 16 16 17 17 16 16 16 16
3 4 4 2 3 5 10 13 12 11 13 14 15 15 18 17 17 18 18 16 15 14 14 15 18 16 16 15 15 16 15 18 19 23 24 20 19 18 17 17 17 17 16 15 15
4 7 4 2 4 7 13 12 11 9 11 13 13 14 16 17 16 18 17 16 15 14 13 15 16 18 16 17 17 17 17 17 17 19 22 24 20 17 16 16 17 16 15 15 15
5 10 6 3 9 9 12 11 10 10 10 11 12 12 15 14 15 17 17 15 14 14 15 14 16 19 18 16 16 16 16 16 18 21 21 21 19 15 15 15 15 15 15 14 14
8 9 6 4 13 12 10 10 10 11 10 10 12 12 12 13 15 16 16 14 13 13 14 14 16 21 19 17 17 17 17 16 17 18 22 21 19 15 16 16 15 15 15 14 14
9 12 10 9 9 10 11 11 11 10 10 10 11 11 13 14 12 14 16 14 14 13 11 11 16 17 16 17 16 18 17 17 16 21 19 18 18 16 15 15 15 15 14 14 14
8 10 10 13 11 10 10 11 12 13 11 10 12 12 12 13 13 13 14 15 14 12 13 13 15 17 18 17 17 17 17 18 17 16 17 16 16 15 13 13 14 13 14 14 14
11 11 11 12 10 11 10 12 13 11 12 13 12 11 11 12 12 13 13 15 14 14 14 14 16 17 18 17 17 19 17 17 16 16 15 16 16 13 13 14 15 14 14 14 14
11 11 10 11 12 12 11 12 12 10 11 10 11 12 13 12 12 12 13 13 13 14 15 15 18 18 18 20 19 19 18 17 18 17 15 17 14 17 15 14 14 14 14 13 14